Location: Fours
(44.3167°N, 6.7000°E)
Time: 09:16:02
(UTC+00:00)

USA 215 - Pass Details

Date: 30 November 2020
Orbit: 1098 x 1110 km, 123.0° (Epoch: 22 January)

Event Time Altitude Azimuth Distance (km) Brightness Sun altitude
Exits shadow 19:31:11 47° 308° (NW) 1,429 4.0 -37.9°
Drops below altitude 10° 19:36:33 10° 260° (W) 2,971 6.2 -38.8°
Sets 19:39:06 0° 256° (WSW) 3,928 6.9 -39.3°
